Location: Ch�teau-Arnoux
(44.0814°N, 6.0027°E)
Time: 01:38:12
(UTC+00:00)

CZ-4C R/B - Pass Details

Date: 15 November 2019
Orbit: 650 x 1352 km, 63.4° (Epoch: 05 December)

Event Time Altitude Azimuth Distance (km) Brightness Sun altitude
Exits shadow 04:12:39 18° 343° (NNW) 2,065 4.0 -24.7°
Drops below altitude 10° 04:16:35 10° 21° (NNE) 2,760 5.1 -24.0°
Sets 04:20:22 0° 39° (NE) 3,865 6.1 -23.4°
